UpdateThe Cosmos 1222 satellite re-entered the Earths atmosphere on the 27th April, 2011 @ 19:32 GMT ± 1 minute. Inclination: 81.17° Revolution Number: 67963 Predicted Location: 51°S, 287°E
UpdateThe Cosmos 1222 satellite is predicted to re-enter the Earths atmosphere on the 27th April, 2011 @ 19:37 GMT ± 2 hours.
COSMOS 12221 12071U 80093A 11117.70191352 .15217360 -99172-6 16964-3 0 85612 12071 081.1916 086.6229 0007755 263.4659 096.6695 16.50231118679620
Period: 87.75 minutes Inclination: 81.17° Apogee: 169 km Perigee: 157 km Revolution Number: 67963 Predicted Location: 46.9°S, 288.2°E
UpdateThe Cosmos 1222 satellite is predicted to re-enter the Earths atmosphere on the 27th April, 2011 @ 14:03 GMT ± 24 hours.
COSMOS 12221 12071U 80093A 11116.41946590 .02912102 -94969-6 54980-3 0 84602 12071 081.1760 088.4404 0008243 207.2957 153.1686 16.31996818679412
Period: 88.58 minutes Inclination: 81.19° Apogee: 213 km Perigee: 196 km Revolution Number: 67961 Predicted Location: 25.2°N, 26.1°E
UpdateThe Cosmos 1222 satellite is predicted to re-enter the Earths atmosphere on the 27th April, 2011 @ 20:47 GMT ± 48 hours.
COSMOS 12221 12071U 80093A 11115.19066651 .01568410 -96341-6 52231-3 0 84002 12071 081.1887 090.1448 0013025 179.1052 181.1315 16.25586524679217
Period: 88.72 minutes Inclination: 81.18° Apogee: 216 km Perigee: 207 km Revolution Number: 67964 Predicted Location: 58°S, 114.5°E
UpdateThe Cosmos 1222 satellite is predicted to re-enter the Earths atmosphere on the 27th April, 2011 @ 21:15 GMT ± 48 hours.
COSMOS 12221 12071U 80093A 11113.46416403 .01171371 -94164-6 60616-3 0 83592 12071 081.1762 092.4787 0007478 188.4161 171.7278 16.20306537678939
Period: 88.95 minutes Inclination: 81.17° Apogee: 228 km Perigee: 218 km Revolution Number: 67964 Predicted Location: 9.3°S, 271.7°E
UpdateThe Cosmos 1222 satellite is predicted to re-enter the Earths atmosphere on the 25th April, 2011 @ --:-- GMT ±-- hours.
COSMOS 12221 12071U 80093A 11108.94318779 +.00643800 +22667-3 +60887-3 0 081892 12071 081.1802 098.5689 0006357 179.4895 180.6457 16.11968045678207
Period: 89.3 minutes Inclination: 81.18° Apogee: 244 km Perigee: 235 km Revolution Number: - Predicted Location: -
UpdateThe Cosmos 1222 satellite is predicted to re-enter the Earths atmosphere on the 18th April, 2011 @ --:-- GMT ±-- hours.
COSMOS 12221 12071U 80093A 11103.46987252 .00491265 11347-3 67815-3 0 80302 12071 081.1795 105.8630 0006120 162.1277 198.0287 16.06034803677323
Period: 89.72 minutes Inclination: 81.19° Apogee: 264 km Perigee: 257 km Revolution Number: - Predicted Location: -
UpdateThe Cosmos 1222 satellite is predicted to re-enter the Earths atmosphere on the 16th April, 2011 @ --:-- GMT ±-- hours.
COSMOS 12221 12071U 80093A 11098.10368685 .00420777 76040-4 75752-3 0 79032 12071 081.1852 112.9585 0005110 185.3611 174.7576 16.01577358676460
Period: 89.98 minutes Inclination: 81.19° Apogee: 276 km Perigee: 271 km Revolution Number: - Predicted Location: -
UpdateThe Cosmos 1222 satellite is predicted to re-enter the Earths atmosphere on the 24th April, 2011 @ --:-- GMT ±-- hours.TLE Data
COSMOS 12221 12071U 80093A 11085.34633373 .00175385 10554-4 47257-3 0 75652 12071 081.1892 129.6665 0002037 201.3803 284.8856 15.94265151674429
Period: 90.32 minutes Inclination: 81.19° Apogee: 292 km Perigee: 289 km Revolution Number: - Predicted Location: -
COSMOS 12221 12071U 80093A 11080.92864738 +.00135114 +57221-5 +39231-3 0 074882 12071 081.1925 135.4175 0002328 199.3396 160.7814 15.92827057673728